Location: San Francisco
(37.7750°N, 122.4180°W)
Time: 16:48:38
(UTC-08:00)

Daily predictions for brighter satellites

Satellite Brightness Start Highest point End
(mag) Time Altitude Azimuth Time Altitude Azimuth Time Altitude Azimuth
AQUARIUS 4.1 17:34:33 10° SSE 17:39:02 77° ENE 17:43:32 10° N
CZ-2C R/B 2.5 17:35:03 10° SSE 17:40:08 90° E 17:45:05 10° NNW
Lacrosse 5 3.5 17:35:53 10° W 17:40:14 27° NW 17:44:35 10° NNE
Cosmos 1763 Rocket 3.7 17:39:57 10° S 17:45:03 55° ESE 17:50:07 10° NNE
Cosmos 1328 Rocket 4.1 17:42:34 10° N 17:46:41 37° ENE 17:50:48 10° SE
Cosmos 1515 Rocket 4.3 17:47:17 10° NNE 17:51:15 31° ENE 17:55:12 10° SE
SKYMED 2 4.0 17:48:38 10° NNE 17:52:47 43° E 17:56:54 10° S
Cosmos 1726 3.7 17:50:21 10° NNE 17:52:51 17° ENE 17:55:20 10° ESE
Cosmos 44 Rocket 4.2 17:49:50 10° S 17:54:24 33° ESE 17:58:55 10° NE
SMAP 3.4 17:50:45 10° S 17:55:22 71° WSW 18:00:02 10° NNW
SJ-6B 4.4 17:55:56 10° ESE 17:58:32 17° ENE 18:01:10 10° NNE
Cosmos 1634 Rocket 4.3 17:53:50 10° N 17:59:43 43° ENE 18:05:31 10° SSE
SPOT 3 Rocket 3.8 17:54:39 10° S 17:59:47 75° WSW 18:04:57 10° NNW
COSMOS 2441 4.4 17:58:29 10° SSE 18:03:22 84° ENE 18:08:15 10° N
BREEZE-M DEB (TANK) 3.0 18:00:48 10° SSW 18:03:23 31° SE 18:04:56 15° E
Thor Agena Rocket 4.0 17:58:23 10° N 18:03:36 68° WNW 18:08:44 10° SSW
Cosmos 2151 3.9 18:00:44 10° SSE 18:04:16 27° E 18:07:48 10° NNE
Cosmos 1500 Rocket 3.8 18:00:31 10° SSE 18:04:37 45° E 18:08:46 10° NNE
Cosmos 2150 Rocket 4.3 17:59:50 10° NNW 18:05:02 74° WSW 18:10:10 10° S
Meteor 1-28 Rocket 3.7 18:01:46 10° NNE 18:05:14 36° E 18:08:40 10° SSE
Cosmos 1151 Rocket 3.7 18:05:20 10° NNE 18:09:09 31° ENE 18:12:57 10° SE
OTV 4 0.3 18:06:31 10° W 18:09:29 84° N 18:11:32 18° E
Cosmos 2263 Rocket 4.5 18:04:44 10° NW 18:09:31 29° WSW 18:14:15 10° SSW
Cosmos 1898 Rocket 4.4 18:04:41 10° NNW 18:09:53 54° WSW 18:15:02 10° S
Milstar 3 3.8 18:04:24 10° WSW 18:10:39 38° S 18:17:16 10° ESE
Cosmos 2333 4.2 18:05:43 10° SSW 18:11:20 89° WNW 18:16:58 10° NNE
Cosmos 540 Rocket 4.2 18:06:50 10° SSE 18:11:22 32° E 18:15:49 11° NE
IDEFIX/ARIANE 42P 3.9 18:06:56 10° S 18:11:52 44° W 18:16:52 10° NNW
OAO 3 Rocket 3.8 18:08:56 10° W 18:13:42 53° S 18:18:23 10° ESE
GPS 2-04 Rocket1 4.5 18:10:34 10° W 18:14:27 32° SSW 18:18:16 10° SE
Cosmos 1844 Rocket 2.7 18:09:42 10° NNW 18:15:20 63° ENE 18:20:54 10° SSE
Atlas Centaur 2 3.5 18:12:18 10° WSW 18:16:27 26° SSW 18:19:56 10° SE
Cosmos 1125 Rocket 4.1 18:12:45 10° N 18:17:28 33° ENE 18:22:08 10° SE
SEDSat Delta rocket 4.5 18:15:03 10° WSW 18:20:13 39° S 18:24:44 10° ESE
Resurs 01 Rocket 3.4 18:23:00 15° NE 18:23:00 15° NE 18:24:21 10° NNE
USA 215 3.3 18:16:30 10° ESE 18:22:59 67° NE 18:29:29 10° NW
Cosmos 1980 4.0 18:18:07 10° S 18:23:31 47° ESE 18:28:28 12° NE
Cosmos 2360 Rocket 4.1 18:20:00 10° WSW 18:24:42 27° WNW 18:29:26 10° N
Cosmos 990 Rocket 4.3 18:19:31 10° NNW 18:24:46 72° WSW 18:29:59 10° S
CZ-3A R/B 3.7 18:23:18 10° NNW 18:27:38 28° NNE 18:29:46 20° ENE
Spot 2 Rocket 4.5 18:25:06 10° ESE 18:29:02 23° ENE 18:32:58 10° NNE
Cosmos 1340 Rocket 3.7 18:25:51 10° SSE 18:29:11 26° E 18:29:46 25° ENE
Cosmos 2333 Rocket 2.2 18:26:00 10° S 18:31:35 67° ESE 18:36:58 11° NNE
Cosmos 841 Rocket 4.1 18:31:54 10° SSW 18:37:04 58° WNW 18:42:18 10° N
NOSS 0 Rocket 3.9 18:31:31 10° SSW 18:37:41 71° ESE 18:43:27 12° NNE
Cosmos 2228 Rocket 4.1 18:35:17 10° NNW 18:39:32 49° W 18:43:48 10° SSW
Meteor 1-27 4.4 18:34:37 10° N 18:40:15 50° ENE 18:45:53 10° SSE
COSMO-SKYMED 1 3.4 18:36:34 10° N 18:40:47 51° WNW 18:44:59 10° SSW
Aureole 2 Rocket 3.6 18:38:17 10° SSE 18:40:43 27° ESE 18:40:43 27° ESE
SL-14 R/B 3.1 18:38:54 10° S 18:42:46 79° E 18:46:31 11° N
FENGYUN 3A 4.2 18:39:18 10° SE 18:44:05 34° ENE 18:48:53 10° N
Cosmos 2084 3.2 18:47:20 10° SW 18:51:15 77° WNW 18:52:44 36° NNE
Cosmos 2219 Rocket 2.6 18:47:11 10° SSW 18:52:46 62° WNW 18:58:22 10° NNE
Cosmos 2279 Rocket 3.9 18:48:12 10° N 18:54:25 70° E 19:00:36 10° SSE
Cosmos 2278 Rocket 2.1 18:51:08 10° NNW 18:56:46 61° ENE 19:02:21 10° SE
METEOR-M 4.1 18:55:46 10° SSE 19:01:06 85° WSW 19:06:30 10° NNW
Abrixas 4.5 19:00:49 10° SSW 19:02:07 21° S 19:02:07 21° S
Lacrosse 5 rocket 3.4 19:01:35 10° NNW 19:02:29 14° N 19:02:29 14° N
Cosmos 1844 4.2 19:00:55 10° NNW 19:06:37 64° WSW 19:12:20 10° S
Cosmos 1626 4.5 19:04:02 10° SSE 19:04:34 13° SSE 19:04:34 13° SSE
Cosmos 2180 Rocket 4.3 19:02:06 10° N 19:08:16 75° E 19:14:27 10° SSE
Meteor 2-10 3.8 19:03:47 10° N 19:08:52 87° ENE 19:14:04 10° S
ALOS 2.2 19:04:49 10° SSE 19:09:24 60° ENE 19:14:00 10° N
Abrixas rocket 4.3 19:07:45 10° WNW 19:10:35 26° SW 19:11:50 20° S
Hubble Space Telescope 3.1 19:08:23 10° SW 19:11:00 16° SSW 19:12:32 14° SSE
CENTAUR R/B 4.1 19:07:11 10° WSW 19:12:34 30° NW 19:18:21 11° NNE
Nadezhda 4 Rocket 4.0 19:07:17 10° SSE 19:13:20 57° E 19:16:27 29° NNE
Cosmos 1300 4.0 19:11:35 10° NNW 19:15:12 39° W 19:18:46 10° SSW
Cosmos 44 3.6 19:10:50 10° SW 19:16:08 73° WNW 19:17:58 40° NNE
Cosmos 2237 Rocket 2.6 19:15:03 10° SW 19:20:34 61° WNW 19:24:04 23° N
SL-16 R/B 2.2 19:18:11 10° S 19:23:27 59° ESE 19:23:27 59° ESE
Cosmos 2058 4.1 19:21:47 10° SSW 19:25:40 40° W 19:28:10 19° NNW
Cosmos 1726 4.4 19:25:01 10° NNW 19:28:10 25° W 19:31:18 10° SSW
Cosmos 1092 Rocket 4.4 19:22:35 10° SSE 19:27:12 44° SE 19:27:12 44° SE
SJ-6B 4.5 19:29:14 10° SSW 19:32:53 34° W 19:36:39 10° NNW
Cosmos 2297 4.4 19:27:52 10° NNW 19:31:34 38° N 19:31:34 38° N
Cosmos 1805 Rocket 4.0 19:29:57 10° SSW 19:34:20 60° W 19:34:40 58° WNW
Cosmos 372 Rocket 4.3 19:33:24 10° NNW 19:38:25 61° WSW 19:41:51 20° S
OTV 4 4.0 19:42:37 10° W 19:42:47 11° W 19:42:47 11° W
Resurs 01 Rocket 3.9 20:00:33 18° NW 20:00:33 18° NW 20:01:47 10° NNW
